Probability
0 0 0 1 3 2 1 1 2 3 5 5 4 4 4 4 4 3 2 1 0 0 0 0 0 0 0 0 0 0 0 0 0 0 0 0 0 0 0 0 0 0 0
0 0 1 2 4 4 2 1 1 3 5 5 5 5 6 5 4 4 3 2 1 0 0 0 0 0 0 0 0 0 0 0 0 0 0 0 0 0 0 0 0 0 0
1 1 1 3 5 5 4 2 1 3 5 6 6 6 6 6 6 5 5 3 2 1 0 0 0 0 0 0 0 0 0 0 0 0 0 0 0 0 0 0 0 0 0
2 2 2 3 4 5 4 3 1 2 4 6 6 6 6 6 6 6 4 3 3 2 1 0 0 0 0 0 0 0 0 0 0 0 0 0 0 0 0 0 0 0 0
2 2 3 3 3 3 3 3 2 1 2 4 5 5 6 6 6 5 4 3 3 3 2 1 0 0 0 0 0 0 0 0 0 0 0 0 0 0 0 0 0 0 0
2 2 2 3 3 3 3 2 2 1 1 1 2 3 4 5 5 4 3 3 3 3 3 1 0 0 0 0 0 0 0 0 0 0 0 0 0 0 0 0 0 0 0
2 2 2 3 3 3 3 3 2 2 1 0 0 1 2 4 4 3 3 3 3 3 3 2 1 0 0 0 0 0 0 0 0 0 0 0 0 0 0 0 0 0 0
2 3 3 3 3 3 3 3 2 2 1 0 0 0 1 2 3 3 3 3 3 3 3 3 2 1 0 0 0 0 0 0 0 0 0 0 0 0 0 0 0 0 0
5 5 5 4 3 3 3 2 1 1 0 0 0 0 0 1 2 3 3 3 3 3 3 3 3 2 1 0 0 0 0 0 0 0 0 0 0 0 0 0 0 0 0
8 8 7 6 4 3 3 2 0 0 0 0 0 0 0 0 1 1 2 3 3 3 3 3 3 2 1 0 0 0 0 0 0 0 0 0 0 0 0 0 0 0 0
9 9 9 8 7 5 4 2 1 0 0 0 0 0 0 0 0 0 1 2 3 3 3 3 3 2 1 0 0 0 0 0 0 0 0 0 0 0 0 0 0 0 0
7 7 8 9 9 9 7 5 4 2 1 0 0 0 0 0 0 0 0 1 2 3 3 3 3 3 1 0 0 0 0 0 0 0 0 0 0 1 0 0 0 0 0
4 4 5 6 8 11 11 10 7 5 3 1 0 0 0 0 0 0 0 0 1 2 3 3 3 3 2 1 0 0 0 0 0 0 0 0 0 0 0 0 0 0 0
3 3 3 4 5 9 11 11 9 8 6 3 1 0 0 0 0 0 0 0 0 1 2 3 3 3 2 1 0 0 0 0 0 0 0 0 0 0 0 0 0 0 0
2 2 2 2 3 4 6 7 6 6 5 4 2 1 0 0 0 0 0 0 0 0 1 1 2 1 1 0 0 0 0 0 0 0 0 0 0 0 0 0 0 0 0
1 1 1 1 1 2 2 2 2 2 2 3 3 2 1 1 0 0 0 0 0 0 0 0 0 0 0 0 0 0 0 0 0 0 0 0 0 0 0 0 0 0 0
0 0 0 0 0 0 0 0 0 0 1 2 3 2 1 1 1 1 0 0 0 0 0 0 0 0 0 0 0 0 0 0 0 0 0 0 0 0 0 0 0 0 0
0 0 0 0 0 0 0 0 0 0 1 1 2 2 1 1 1 1 0 0 0 0 0 0 0 0 0 0 0 0 0 0 0 0 0 0 0 0 0 0 0 0 0
0 0 0 0 0 0 0 1 0 1 1 1 1 1 1 1 1 1 0 0 0 0 0 0 0 0 0 0 0 0 0 0 0 0 0 0 0 0 0 0 0 0 0
0 0 0 0 0 0 0 0 0 1 2 2 1 1 1 0 0 0 0 0 1 0 0 0 0 0 0 0 0 0 0 0 0 0 0 0 0 0 0 0 0 0 0
0 0 0 0 0 0 0 0 0 0 1 1 1 0 0 0 0 0 0 0 0 0 0 0 0 0 0 0 0 0 0 0 0 0 0 0 0 0 0 0 0 0 0
0 0 0 0 0 0 0 0 0 0 0 0 0 0 0 0 0 0 0 0 0 0 0 0 0 0 0 0 0 0 0 0 0 0 0 0 0 0 0 0 0 0 0
0 0 0 0 0 0 0 0 0 0 0 0 0 0 0 0 0 0 0 0 0 0 0 0 0 0 0 0 0 0 0 0 0 0 0 0 0 0 0 0 0 0 0
0 0 0 0 0 0 0 0 0 0 0 0 0 0 0 0 0 0 0 0 0 0 0 0 0 0 0 0 0 0 0 0 0 0 0 0 0 0 0 0 0 0 0
0 0 0 0 0 0 0 1 1 1 0 0 0 0 0 0 0 0 0 0 0 0 0 0 0 0 0 0 0 0 0 0 0 0 0 0 0 0 0 0 0 0 0
0 0 0 0 0 0 0 1 2 1 0 0 0 0 0 0 0 0 0 0 0 0 0 0 0 0 0 0 0 0 0 0 0 0 0 0 0 0 0 0 0 0 0
Wind_Speed
3 3 2 2 5 7 8 8 9 8 9 9 9 9 9 9 9 9 9 8 8 8 9 9 9 10 11 11 11 11 11 11 11 11 11 11 12 13 12 10 9 10 12
4 4 2 3 6 8 7 8 8 8 8 8 8 9 9 8 8 8 9 8 8 9 9 9 10 10 10 11 11 11 11 11 10 9 8 9 11 11 12 11 10 9 11
5 5 4 4 7 8 8 8 8 8 8 7 8 8 8 8 8 8 8 8 8 9 10 10 10 11 11 11 11 11 10 10 10 7 5 7 9 10 11 11 11 11 11
5 5 4 5 7 8 8 8 8 8 7 7 8 8 8 8 8 8 8 8 8 8 9 10 10 10 11 10 10 10 10 10 8 4 5 7 7 9 10 10 11 11 11
5 5 5 5 7 8 8 8 8 8 7 7 7 8 8 8 7 8 8 8 8 8 8 9 10 10 10 10 9 9 9 8 6 5 6 6 7 9 10 10 10 10 10
5 5 6 6 7 7 8 8 8 7 7 7 7 7 7 7 7 7 7 7 7 7 8 9 9 10 10 10 9 9 9 6 4 6 6 6 6 8 9 9 10 9 9
5 4 5 6 6 7 7 7 8 8 7 7 7 7 7 7 7 7 7 7 7 7 8 9 9 9 9 9 9 9 8 5 4 5 5 5 6 7 8 9 9 8 8
5 4 4 5 6 6 6 7 7 7 7 7 7 7 7 7 7 7 7 7 6 6 7 8 9 9 8 8 8 8 7 4 4 5 5 5 6 6 7 8 8 8 8
5 4 4 4 5 6 6 6 7 7 7 7 7 7 7 6 7 6 6 6 6 6 6 7 8 8 8 8 8 8 6 4 3 3 4 4 4 5 6 7 7 7 7
4 4 4 4 4 5 5 6 6 6 6 7 7 7 7 6 6 6 6 6 6 6 6 6 7 7 7 7 7 6 4 2 3 3 3 4 4 5 6 6 6 6 7
3 3 3 3 3 4 4 4 4 5 5 6 5 6 4 3 3 3 6 6 6 6 6 6 6 6 6 6 6 5 2 2 3 3 3 4 4 5 6 6 6 6 6
4 3 3 3 3 3 3 3 3 3 3 3 3 3 2 2 2 3 5 5 6 6 6 6 5 4 3 3 4 2 2 3 3 3 3 5 4 5 5 5 6 6 5
5 3 2 3 3 3 2 2 2 2 2 2 3 2 2 2 2 2 2 2 3 3 3 3 2 2 2 2 2 2 2 2 2 2 3 4 4 4 4 4 5 5 5
4 4 3 3 3 3 3 2 2 2 2 2 2 2 2 2 1 1 1 1 1 1 1 1 1 1 2 2 2 2 2 1 2 2 3 5 4 4 4 4 4 3 4
4 4 3 3 3 2 2 2 2 2 2 2 2 2 2 2 1 1 1 1 1 1 1 1 1 2 2 2 2 2 2 2 2 2 2 5 5 4 4 3 3 3 3
5 4 3 3 3 3 2 2 2 2 2 2 2 2 2 1 1 1 1 1 1 1 1 1 1 1 1 1 2 2 1 1 1 1 1 2 4 4 4 3 3 3 3
4 4 4 4 3 3 3 2 2 2 2 2 2 2 2 2 2 1 1 1 1 1 1 1 1 1 1 1 1 1 1 1 1 1 1 0 1 3 4 4 4 3 3
4 4 4 3 4 4 3 2 2 2 2 2 2 2 2 2 2 2 1 1 1 1 1 1 1 1 1 1 0 1 1 1 1 1 1 1 1 1 2 4 4 4 4
5 5 4 4 4 4 3 2 2 2 2 1 1 1 2 2 2 2 2 1 1 1 1 0 0 1 1 1 0 0 0 1 1 1 1 1 1 1 1 2 3 4 5
5 5 4 4 4 4 3 2 2 2 1 1 1 1 2 2 2 1 1 2 2 1 1 1 1 1 1 1 1 0 0 1 1 1 1 0 1 1 1 1 1 2 4
5 5 5 4 4 4 3 3 2 2 1 1 1 1 2 2 2 2 1 2 2 2 1 2 1 1 1 1 1 1 1 1 1 1 1 0 0 1 1 1 1 2 2
5 5 5 4 4 4 3 3 2 2 1 1 1 1 2 2 2 2 2 2 2 2 2 2 2 1 1 1 1 2 1 2 1 1 1 1 1 1 1 1 2 2 2
5 5 4 4 4 4 4 3 2 2 1 1 1 1 1 2 2 2 2 2 2 2 3 3 3 3 2 2 1 1 2 2 1 2 2 1 1 1 1 1 2 2 3
5 4 4 4 4 4 4 4 5 4 3 2 2 1 1 1 2 2 2 2 2 2 2 3 3 3 3 3 2 2 1 0 2 1 2 2 2 2 2 2 3 3 3
4 4 3 3 3 3 4 4 4 4 3 2 2 2 2 1 1 2 2 2 2 2 2 3 3 3 3 3 3 2 2 2 2 3 3 3 2 3 3 3 3 3 3
3 3 3 3 3 3 3 3 4 4 3 3 3 3 2 1 1 2 2 2 2 2 3 3 3 4 4 4 3 3 3 3 3 3 3 4 4 3 3 3 3 3 3
Wind_Direction
158 152 161 168 131 118 110 108 107 103 102 100 104 104 102 99 98 94 92 89 88 90 94 93 94 91 88 85 82 79 76 74 74 73 73 75 74 77 75 70 69 75 71
150 157 157 154 127 116 112 107 106 103 101 101 105 105 103 100 99 95 91 87 86 85 86 89 92 91 89 85 81 79 77 73 70 68 72 83 76 78 78 69 61 73 73
143 151 158 133 117 111 109 108 105 102 101 100 104 103 100 98 98 98 93 88 84 83 82 85 88 89 87 85 82 80 78 73 67 65 76 87 85 81 80 76 73 75 73
143 150 154 120 113 110 107 106 104 103 100 98 101 101 98 95 96 97 93 90 87 83 83 86 88 90 89 85 81 79 77 74 65 62 84 79 84 82 82 81 78 76 73
143 149 134 116 116 115 110 107 105 101 101 98 95 94 94 93 92 95 93 88 86 84 85 88 88 88 88 87 83 80 78 74 66 82 82 81 80 81 81 81 80 76 73
139 142 131 117 119 117 113 109 107 105 102 96 92 91 90 90 87 87 92 90 87 84 86 88 88 88 88 86 85 81 78 71 85 84 79 78 78 82 82 80 78 76 74
130 127 130 112 117 119 115 112 109 106 103 100 96 91 89 88 87 84 87 92 91 88 89 88 88 86 86 85 82 80 77 63 82 86 82 76 72 73 79 81 79 78 76
130 128 127 108 108 116 115 109 107 104 101 96 92 90 88 88 88 88 87 86 87 89 92 91 88 86 86 84 81 77 67 57 91 88 84 80 66 69 76 81 81 79 76
124 126 129 135 127 113 106 101 98 97 95 92 86 81 79 79 82 81 81 83 84 86 92 92 91 90 88 85 81 75 64 42 85 87 84 79 65 73 76 78 82 79 76
122 126 132 139 141 138 129 101 94 94 92 90 83 76 75 75 75 73 76 77 88 88 87 90 92 91 90 86 79 72 63 62 78 85 85 75 66 73 74 75 80 81 77
134 137 142 143 144 141 141 122 114 101 92 94 91 81 85 100 96 87 70 71 80 88 86 87 92 93 95 93 80 71 78 80 73 69 72 67 73 77 75 73 78 82 77
171 169 166 161 154 148 140 140 145 136 124 118 113 110 111 102 87 82 76 67 75 82 87 84 91 107 112 112 100 101 96 87 85 73 64 57 72 79 80 73 72 74 76
180 170 175 176 166 161 152 148 144 139 132 129 120 116 115 108 98 93 105 102 102 96 99 98 99 100 100 97 104 94 91 96 89 83 65 50 56 72 80 74 70 68 69
188 184 178 174 172 174 165 157 152 146 147 144 134 128 129 120 111 105 98 101 112 105 94 96 83 88 111 109 103 98 98 90 89 82 62 40 40 57 72 71 65 69 70
199 192 188 184 181 171 171 166 163 160 159 158 151 147 137 136 136 120 102 96 95 108 112 96 101 89 89 112 109 103 95 93 91 95 87 52 33 37 60 60 58 59 64
204 196 188 186 186 175 169 171 173 169 164 166 160 157 156 155 149 140 136 115 97 90 90 110 107 126 99 86 123 117 114 109 96 94 97 86 48 26 33 43 46 47 48
203 196 193 189 186 184 181 183 171 165 170 170 169 164 160 159 166 167 161 141 115 99 131 150 130 128 122 97 125 128 126 109 107 86 63 63 82 41 26 28 31 29 28
196 193 191 184 184 184 184 180 175 170 162 172 172 167 161 162 178 180 167 157 137 141 141 160 157 156 149 140 122 132 146 131 111 81 81 49 24 20 35 29 18 14 8
197 191 186 183 182 179 176 170 160 159 156 160 159 167 168 170 187 185 180 166 169 160 150 146 196 199 171 159 119 107 175 151 138 115 96 64 35 13 357 37 19 6 357
194 187 179 178 178 172 167 168 161 155 159 163 163 171 177 178 186 189 182 170 176 172 159 168 216 203 177 173 162 153 243 155 178 189 170 100 38 15 355 353 339 357 353
185 184 179 177 176 175 174 183 184 181 182 176 170 183 186 177 184 183 188 182 186 186 182 181 191 191 166 172 186 165 145 181 184 207 213 200 80 351 340 334 325 324 321
189 189 187 187 186 189 192 186 183 175 181 187 172 182 188 179 182 191 194 196 199 193 187 190 185 203 182 186 200 193 203 203 186 218 224 225 245 273 302 322 326 324 316
197 198 198 194 193 195 190 172 152 149 144 163 188 202 208 202 193 192 200 197 204 208 200 200 201 204 201 194 198 218 216 226 245 198 222 226 232 249 274 291 301 304 308
205 199 200 196 193 191 187 181 179 187 192 195 199 202 206 209 201 195 200 199 204 210 207 206 210 212 204 205 198 231 252 241 233 236 209 222 239 256 269 279 275 284 291
200 194 193 186 186 188 190 187 190 196 195 177 180 184 187 190 201 196 197 201 208 214 214 216 208 207 207 214 210 212 213 214 237 241 247 247 252 251 263 269 269 271 279
192 186 184 178 176 180 190 191 194 192 186 180 190 189 187 193 203 206 202 205 214 220 220 222 217 208 205 209 213 216 215 207 209 225 242 255 266 263 265 261 261 263 273